K. Sarneczkyと R. Szakats (Konkoly天文台)の通報によると、9月18.0日UT、Konkoly天文台
Piszkesteto観測所の0.60-m Schmid望遠鏡で得たフィルターなしのCCD露出からP/2007 V1
(IAUC 8893参照)を検出した。
この彗星は、120秒露出6枚で恒星状に近いコマとp.a. 110-120°に約20"の尾が見える。
後に確認された同じ望遠鏡によるより早い8月18日(観測者:B. Ignacz)と9月14日(観測者:Szakats)の
イメージがあった。
MPC 102104のG. V. Williamsの予報に対して、Delta(T)は、-1.33 daysであった。
検出位置は次のとおり、
2018 UT R.A. (2000) Decl. Mag. Observer
Aug. 18.04151 2 32 34.23 +18 06 07.7 20.6 Ignacz
18.05365 2 32 34.67 +18 06 12.2 20.3 "
Sept.14.08872 2 42 47.01 +21 00 11.2 19.7 Szakats
14.09681 2 42 47.02 +21 00 13.6 19.8 "
14.10488 2 42 47.07 +21 00 16.7 19.9 "
17.99674 2 42 56.50 +21 21 40.4 19.4 "
18.00649 2 42 56.51 +21 21 43.6 20.2 "
18.01623 2 42 56.50 +21 21 46.6 19.6 "
連結軌道要素と位置推算表は次のとおり、
Orbital elements:
P/2007 V1 (Larson)
Epoch 2007 Dec. 6.0 TT = JDT 2454440.5
T 2007 Dec. 8.43217 TT MPCW
q 2.6765657 (2000.0) P Q
n 0.08904610 Peri. 51.43051 +0.50773855 -0.86109867
a 4.9666030 Node 8.18699 +0.72071185 +0.40760135
e 0.4610872 Incl. 10.78929 +0.47199152 +0.30392469
P 11.07
From 174 observations 2007 Sept. 10-2018 Sept. 18, mean residual 0".6.
P/2007 V1 (Larson)
Epoch 2018 Dec. 28.0 TT = JDT 2458480.5
T 2019 Jan. 10.84650 TT MPCW
q 2.6766308 (2000.0) P Q
n 0.08874584 Peri. 51.58609 +0.50911515 -0.86031255
a 4.9777991 Node 7.93549 +0.72001330 +0.40930252
e 0.4622863 Incl. 10.75795 +0.47157461 +0.30386472
P 11.11
From 174 observations 2007 Sept. 10-2018 Sept. 18, mean residual 0".6.
P/2007 V1 (Larson)
Epoch 2030 Feb. 28.0 TT = JDT 2462560.5
T 2030 Feb. 15.69432 TT MPCW
q 2.6749098 (2000.0) P Q
n 0.08877814 Peri. 51.52873 +0.51221400 -0.85848603
a 4.9765918 Node 7.78399 +0.71840102 +0.41213727
e 0.4625017 Incl. 10.75303 +0.47067695 +0.30519601
P 11.10
From 174 observations 2007 Sept. 10-2018 Sept. 18, mean residual 0".6.
P/2007 V1 (Larson)
Epoch 2018 Mar. 23.0 TT = JDT 2458200.5
T 2019 Jan. 10.95027 TT MPCW
q 2.6763627 (2000.0) P Q
n 0.08879516 Peri. 51.61276 +0.50869146 -0.86056288
a 4.9759558 Node 7.93708 +0.72020633 +0.40893707
e 0.4621410 Incl. 10.75931 +0.47173705 +0.30364782
P 11.10
From 174 observations 2007 Sept. 10-2018 Sept. 18, mean residual 0".6.
Ephemeris:
P/2007 V1 (Larson)
Date TT R. A. (2000) Decl. Delta r Elong. Phase m1
2018 08 19 02 33 10.1 +18 12 55 2.4467 2.8652 104.0 20.0 20.5
...
2018 09 03 02 40 24.9 +19 53 40 2.2349 2.8299 116.3 18.6 20.3
...
2018 09 11 02 42 24.3 +20 42 28 2.1309 2.8124 123.3 17.4 20.1
...
2018 09 17 02 42 56.1 +21 16 19 2.0583 2.7998 128.8 16.3 20.0
2018 09 18 02 42 56.5 +21 21 43 2.0468 2.7978 129.7 16.0 20.0
2018 09 19 02 42 55.4 +21 27 02 2.0354 2.7958 130.6 15.8 20.0
...
2018 09 25 02 42 18.6 +21 57 17 1.9704 2.7839 136.4 14.4 19.9
...
2018 10 03 02 40 09.0 +22 32 41 1.8939 2.7691 144.3 12.2 19.8
...
2018 10 18 02 32 20.0 +23 20 51 1.7878 2.7439 159.6 7.3 19.6
(CBET 4558、MPEC 2018-S31)